When you browse on this site, cookies collect data to enhance your experience and personalize the content and advertising you see.
Visit our Privacy Policy to learn more. By continuing to use the site, you agree to this use of cookies and data.
  • In Sweden
  • List of Countries
  • For 7 days
  • Water Temperature
  • Weather Map
  • Weather Widgets
  • user-avatar
    Login

    Hourly Weather Vilyandi

    Today, 6 December, Friday

    Time Temperature Precipitation Wind Pressure Humidity
    00:00 +3°C° 0 mm 7 mps 743 mmHg 80%
    01:00 +3°C° 0 mm 7 mps 743 mmHg 80%
    02:00 +4°C° 0 mm 7 mps 742 mmHg 81%
    03:00 +4°C° 0 mm 7 mps 741 mmHg 81%
    04:00 +4°C° 0 mm 7 mps 741 mmHg 81%
    05:00 +4°C° 0 mm 7 mps 740 mmHg 82%
    06:00 +4°C° 0.1 mm 7 mps 740 mmHg 81%
    07:00 +3°C° 0.1 mm 7 mps 739 mmHg 81%
    08:00 +3°C° 0 mm 7 mps 739 mmHg 79%
    09:00 +3°C° 0.6 mm 7 mps 738 mmHg 82%
    10:00 +3°C° 0.6 mm 7 mps 738 mmHg 85%
    11:00 +2°C° 0.6 mm 7 mps 737 mmHg 88%
    12:00 +3°C° 0.8 mm 7 mps 737 mmHg 88%
    13:00 +3°C° 0.8 mm 7 mps 737 mmHg 87%
    14:00 +4°C° 0.8 mm 7 mps 737 mmHg 87%
    15:00 +4°C° 0.4 mm 7 mps 736 mmHg 87%
    16:00 +5°C° 0.4 mm 7 mps 736 mmHg 86%
    17:00 +6°C° 0.4 mm 7 mps 736 mmHg 86%
    18:00 +6°C° 0.1 mm 7 mps 737 mmHg 87%
    19:00 +6°C° 0.1 mm 7 mps 737 mmHg 88%
    20:00 +7°C° 0.1 mm 6 mps 738 mmHg 88%
    21:00 +7°C° 0 mm 6 mps 738 mmHg 88%
    22:00 +7°C° 0 mm 6 mps 738 mmHg 88%
    23:00 +6°C° 0 mm 5 mps 738 mmHg 88%

    Tomorrow, 7 December, Saturday

    Time Temperature Precipitation Wind Pressure Humidity
    00:00 +6°C° 0 mm 5 mps 739 mmHg 89%
    01:00 +6°C° 0 mm 5 mps 739 mmHg 89%
    02:00 +6°C° 0 mm 5 mps 739 mmHg 90%
    03:00 +6°C° 0 mm 5 mps 739 mmHg 90%
    04:00 +6°C° 0 mm 5 mps 739 mmHg 90%
    05:00 +6°C° 0 mm 5 mps 738 mmHg 91%
    06:00 +5°C° 0.1 mm 5 mps 738 mmHg 90%
    07:00 +5°C° 0.1 mm 5 mps 738 mmHg 90%
    08:00 +3°C° 0.1 mm 5 mps 738 mmHg 89%
    09:00 +3°C° 0 mm 5 mps 738 mmHg 89%
    10:00 +2°C° 0 mm 5 mps 737 mmHg 89%
    11:00 +2°C° 0 mm 5 mps 737 mmHg 89%
    12:00 +2°C° 0.6 mm 5 mps 736 mmHg 89%
    13:00 +2°C° 0.6 mm 5 mps 736 mmHg 89%
    14:00 +2°C° 0.6 mm 5 mps 735 mmHg 89%
    15:00 +2°C° 0.4 mm 6 mps 735 mmHg 89%
    16:00 +2°C° 0.4 mm 6 mps 734 mmHg 88%
    17:00 +3°C° 0.4 mm 6 mps 733 mmHg 87%
    18:00 +3°C° 0.2 mm 6 mps 733 mmHg 86%
    19:00 +3°C° 0.2 mm 6 mps 733 mmHg 85%
    20:00 +4°C° 0.2 mm 6 mps 733 mmHg 84%
    21:00 +3°C° 0.1 mm 6 mps 733 mmHg 83%
    22:00 +3°C° 0.1 mm 6 mps 733 mmHg 81%
    23:00 +2°C° 0.1 mm 6 mps 733 mmHg 80%

    Day after tomorrow, 8 December, Sunday

    Time Temperature Precipitation Wind Pressure Humidity
    00:00 +2°C° 0.1 mm 5 mps 733 mmHg 81%
    01:00 +1°C° 0.1 mm 5 mps 733 mmHg 82%
    02:00 0°C° 0.1 mm 4 mps 734 mmHg 84%
    03:00 0°C° 0 mm 4 mps 734 mmHg 82%
    04:00 0°C° 0 mm 4 mps 735 mmHg 80%
    05:00 0°C° 0 mm 4 mps 735 mmHg 79%
    06:00 0°C° 0 mm 4 mps 736 mmHg 80%
    07:00 0°C° 0 mm 4 mps 736 mmHg 82%
    08:00 +1°C° 0 mm 3 mps 737 mmHg 83%
    09:00 0°C° 0 mm 4 mps 737 mmHg 82%
    10:00 0°C° 0 mm 4 mps 737 mmHg 80%
    11:00 +1°C° 0 mm 4 mps 738 mmHg 78%
    12:00 +1°C° 0.1 mm 4 mps 738 mmHg 78%
    13:00 +1°C° 0.1 mm 4 mps 738 mmHg 77%
    14:00 +1°C° 0.1 mm 4 mps 738 mmHg 77%
    15:00 +1°C° 0 mm 4 mps 738 mmHg 78%
    16:00 +1°C° 0 mm 4 mps 737 mmHg 80%
    17:00 0°C° 0 mm 4 mps 737 mmHg 81%
    18:00 0°C° 0.1 mm 4 mps 737 mmHg 85%
    19:00 0°C° 0.1 mm 4 mps 736 mmHg 90%
    20:00 -1°C° 0.1 mm 4 mps 736 mmHg 94%
    21:00 0°C° 0.7 mm 4 mps 735 mmHg 93%
    22:00 +1°C° 0.7 mm 5 mps 734 mmHg 93%
    23:00 +2°C° 0.7 mm 5 mps 733 mmHg 92%

    9 December, Monday

    Time Temperature Precipitation Wind Pressure Humidity
    00:00 +3°C° 0.5 mm 6 mps 732 mmHg 90%
    01:00 +3°C° 0.5 mm 6 mps 732 mmHg 89%
    02:00 +4°C° 0.5 mm 7 mps 731 mmHg 87%
    03:00 +4°C° 0.4 mm 7 mps 731 mmHg 86%
    04:00 +4°C° 0.4 mm 7 mps 731 mmHg 86%
    05:00 +5°C° 0.4 mm 7 mps 731 mmHg 85%
    06:00 +4°C° 0.1 mm 6 mps 731 mmHg 85%
    07:00 +5°C° 0.1 mm 5 mps 731 mmHg 85%
    08:00 +3°C° 0.1 mm 5 mps 731 mmHg 85%
    09:00 +3°C° 0.1 mm 5 mps 732 mmHg 85%
    10:00 +3°C° 0.1 mm 5 mps 732 mmHg 85%
    11:00 +3°C° 0.1 mm 6 mps 732 mmHg 85%
    12:00 +3°C° 0.3 mm 6 mps 732 mmHg 82%
    13:00 +3°C° 0.3 mm 6 mps 733 mmHg 80%
    14:00 +4°C° 0.3 mm 6 mps 733 mmHg 77%
    15:00 +3°C° 0.1 mm 5 mps 733 mmHg 78%
    16:00 +3°C° 0.1 mm 5 mps 733 mmHg 79%
    17:00 +3°C° 0.1 mm 5 mps 734 mmHg 81%
    18:00 +3°C° 0.1 mm 5 mps 734 mmHg 81%
    19:00 +3°C° 0.1 mm 5 mps 735 mmHg 82%
    20:00 +3°C° 0.1 mm 5 mps 735 mmHg 82%
    21:00 +3°C° 0.1 mm 5 mps 736 mmHg 82%
    22:00 +3°C° 0.1 mm 5 mps 736 mmHg 82%
    23:00 +3°C° 0.1 mm 5 mps 736 mmHg 82%

    10 December, Tuesday

    Time Temperature Precipitation Wind Pressure Humidity
    00:00 +4°C° 0 mm 4 mps 737 mmHg 84%
    01:00 +3°C° 0 mm 4 mps 737 mmHg 85%
    02:00 +3°C° 0 mm 4 mps 738 mmHg 86%
    03:00 +3°C° 0.1 mm 4 mps 738 mmHg 88%
    04:00 +3°C° 0.1 mm 4 mps 739 mmHg 89%
    05:00 +3°C° 0.1 mm 4 mps 739 mmHg 91%
    06:00 +3°C° 0.5 mm 3 mps 739 mmHg 91%
    07:00 +3°C° 0.5 mm 3 mps 739 mmHg 91%
    08:00 +3°C° 0.5 mm 3 mps 740 mmHg 91%
    09:00 +2°C° 0.9 mm 3 mps 740 mmHg 92%
    10:00 +2°C° 0.9 mm 3 mps 741 mmHg 94%
    11:00 +2°C° 0.9 mm 3 mps 741 mmHg 95%
    12:00 +1°C° 1.1 mm 3 mps 741 mmHg 95%
    13:00 -1°C° 1.1 mm 4 mps 742 mmHg 94%
    14:00 -2°C° 1.1 mm 4 mps 742 mmHg 94%
    15:00 -2°C° 0.7 mm 4 mps 742 mmHg 91%
    16:00 -3°C° 0.7 mm 4 mps 743 mmHg 89%
    17:00 -3°C° 0.7 mm 4 mps 744 mmHg 86%
    18:00 -2°C° 0 mm 3 mps 744 mmHg 83%
    19:00 -2°C° 0 mm 2 mps 745 mmHg 79%
    20:00 -2°C° 0 mm 2 mps 746 mmHg 76%
    21:00 -3°C° 0 mm 2 mps 746 mmHg 77%
    22:00 -3°C° 0 mm 2 mps 747 mmHg 79%
    23:00 -4°C° 0 mm 2 mps 747 mmHg 81%

    11 December, Wednesday

    Time Temperature Precipitation Wind Pressure Humidity
    00:00 -4°C° 0 mm 2 mps 748 mmHg 82%
    01:00 -3°C° 0 mm 2 mps 748 mmHg 83%
    02:00 -3°C° 0 mm 2 mps 748 mmHg 84%
    03:00 -3°C° 0 mm 2 mps 748 mmHg 84%
    04:00 -3°C° 0 mm 2 mps 749 mmHg 83%
    05:00 -3°C° 0 mm 2 mps 749 mmHg 83%
    06:00 -3°C° 0 mm 2 mps 750 mmHg 84%
    07:00 -3°C° 0 mm 2 mps 750 mmHg 84%
    08:00 -3°C° 0 mm 2 mps 750 mmHg 85%
    09:00 -2°C° 0 mm 2 mps 750 mmHg 83%
    10:00 -2°C° 0 mm 2 mps 751 mmHg 81%
    11:00 -2°C° 0 mm 2 mps 751 mmHg 79%
    12:00 -1°C° 0 mm 2 mps 751 mmHg 78%
    13:00 -1°C° 0 mm 2 mps 751 mmHg 78%
    14:00 -1°C° 0 mm 2 mps 751 mmHg 77%
    15:00 -1°C° 0 mm 2 mps 751 mmHg 78%
    16:00 -1°C° 0 mm 2 mps 751 mmHg 79%
    17:00 -2°C° 0 mm 3 mps 751 mmHg 80%
    18:00 -2°C° 0 mm 3 mps 751 mmHg 78%
    19:00 -2°C° 0 mm 3 mps 751 mmHg 76%
    20:00 -2°C° 0 mm 3 mps 751 mmHg 73%
    21:00 -3°C° 0 mm 4 mps 751 mmHg 71%
    22:00 -3°C° 0 mm 4 mps 750 mmHg 69%
    23:00 -2°C° 0 mm 4 mps 750 mmHg 67%
    Show more